STARLINK-34354 (64314 NORAD) Tracking and Keplerian Element Data

This shows tracking and keplerian element data for the satellite.

Feedback or suggestion? Click here.




ElementValue
Catalog64314
NameSTARLINK-34354
Epoch Orbit2970
Epoch Day354.13908505
Epoch Year2025
RAAN34.9888
Inclination70.0011
Eccentricity0.0003521
Argument of Perigee273.9188
Mean Anonmoly86.1569
Mean Motion14.98336646
Decay Rate2.177E-05
L11 64314U 25123Z 25354.13908505 .00002177 00000+0 19019-3 0 9990
L22 64314 70.0011 34.9888 0003521 273.9188 86.1569 14.98336646 29701



Live tracking and technical data element details for STARLINK-34354 (NORAD 64314). STARLINK-34354 can be tracked NOW for your location showing map with azimuth and elevation plus other details from your city location.







IsCatalogInMostPopularTable: catalog: 64314, numindb: 9
Update: records affected: 1



GetName: 64314 STARLINK-34354

Hit Count: updated at: Wed, 15 Apr 2026 01:34:34 GMT